This is the latest recevied weather packets stored in our database for station/object K0VSC-1. If no packets are shown the sender has not sent any weather packets the latest 10 day(s).
| Time | Temp. | Humidity | Pressure | Rain* | Wind** | Luminosity | Snow |
|---|---|---|---|---|---|---|---|
| 1777817891 | 13.33° C | 53% | 1007.6 hPa | 0 mm | - | 482 W/m² | - |
| 1777817591 | 12.78° C | 53% | 1007.5 hPa | 0 mm | - | 469 W/m² | - |
| 1777817291 | 12.78° C | 52% | 1007.5 hPa | 0 mm | - | 457 W/m² | - |
| 1777816991 | 12.78° C | 54% | 1007.4 hPa | 0 mm | - | 439 W/m² | - |
| 1777816691 | 12.78° C | 54% | 1007.5 hPa | 0 mm | - | 427 W/m² | - |
| 1777816391 | 12.22° C | 55% | 1007.5 hPa | 0 mm | - | 413 W/m² | - |
| 1777816091 | 12.22° C | 55% | 1007.4 hPa | 0 mm | - | 399 W/m² | - |
| 1777815791 | 11.67° C | 57% | 1007.4 hPa | 0 mm | - | 380 W/m² | - |
| 1777815491 | 11.67° C | 58% | 1007.4 hPa | 0 mm | - | 360 W/m² | - |
| 1777815191 | 11.67° C | 59% | 1007.4 hPa | 0 mm | - | 332 W/m² | - |
| 1777814891 | 11.67° C | 60% | 1007.2 hPa | 0 mm | - | 308 W/m² | - |
| 1777814591 | 11.11° C | 60% | 1007.3 hPa | 0 mm | - | 265 W/m² | - |
| 1777814291 | 11.11° C | 61% | 1007.2 hPa | 0 mm | - | 220 W/m² | - |
| 1777813991 | 10.56° C | 61% | 1007.2 hPa | 0 mm | - | 186 W/m² | - |
| 1777813691 | 10.56° C | 62% | 1007.2 hPa | 0 mm | - | 183 W/m² | - |
| 1777813391 | 10.56° C | 62% | 1007.2 hPa | 0 mm | - | 186 W/m² | - |
| 1777813091 | 10° C | 63% | 1007 hPa | 0 mm | - | 193 W/m² | - |
| 1777812791 | 10° C | 63% | 1007 hPa | 0 mm | - | 199 W/m² | - |
| 1777812491 | 10° C | 64% | 1006.9 hPa | 0 mm | - | 186 W/m² | - |
| 1777812191 | 10° C | 64% | 1006.9 hPa | 0 mm | - | 165 W/m² | - |
| 1777811891 | 10° C | 64% | 1006.8 hPa | 0 mm | - | 148 W/m² | - |
| 1777811591 | 9.44° C | 64% | 1006.7 hPa | 0 mm | - | 141 W/m² | - |
| 1777811291 | 9.44° C | 65% | 1006.7 hPa | 0 mm | - | 142 W/m² | - |
| 1777810991 | 9.44° C | 66% | 1006.6 hPa | 0 mm | - | 141 W/m² | - |
| 1777810691 | 8.89° C | 66% | 1006.5 hPa | 0 mm | - | 134 W/m² | - |
* Rain latest hour (hover to see other rain measurements)
** Current wind speed in m/s (hover to see current wind gust speed)